Regional Weather Roundup
Issued by NWS

Home | Current Version | Previous Version | Text Only | Print | Product List | Glossary On
Versions: 1 2 3 4 5 6 7 8 9 10 11 12 13 14 15 16 17 18 19 20 21 22 23 24 25 26 27 28 29 30 31 32 33 34 35 36 37 38 39 40 41 42 43 44 45 46 47 48 49 50
000
ASUS43 KMPX 242201
RWRMN
WEATHER ROUNDUP FOR MINNESOTA
NATIONAL WEATHER SERVICE TWIN CITIES/CHANHASSEN MN
400 PM CST SAT JAN 24 2015


NOTE: "FAIR" INDICATES FEW OR NO CLOUDS BELOW 12,000 FEET WITH NO
SIGNIFICANT WEATHER AND/OR OBSTRUCTIONS TO VISIBILITY. N/A MEANS
CURRENT SKY AND/OR WEATHER CONDITIONS ARE NOT AVAILABLE.

MNZ060>063-068>070-242300-
   Twin Cities Metro

CITY           SKY/WX    TMP DP  RH WIND       PRES   REMARKS
TWIN CITIES    CLOUDY    40  31  70 S6        29.58S
ST PAUL        CLOUDY    40  32  73 S3        29.59S
CRYSTAL        CLOUDY    42  31  64 SW5       29.57S
LAKEVILLE      CLOUDY    37  32  81 W5        29.59R
EDEN PRAIRIE   CLOUDY    39  31  72 W3        29.58R
SOUTH ST PAUL  CLOUDY    41  32  69 CALM      29.58S
LAKE ELMO      FAIR      41  32  70 CALM      29.59S
$$
MNZ001>005-007-008-013>017-022>024-027-028-242300-
   Northwest Minnesota

CITY           SKY/WX    TMP DP  RH WIND       PRES   REMARKS
BEMIDJI        CLOUDY    33  28  83 NE8       29.60R WCI  26
HALLOCK        CLOUDY    32  27  80 N8        29.68R WCI  25
ROSEAU         PTCLDY    25  16  68 E14       29.68R WCI  13
WARROAD        PTCLDY    21  14  73 NE13      29.70R WCI   9
THIEF RVR FALL CLOUDY    34  27  75 NE8       29.64R WCI  27
CROOKSTON      CLOUDY    34  30  86 NE7       29.64S WCI  28
FOSSTON        CLOUDY    30  30 100 NE8       29.61S WCI  23
DETROIT LAKES  CLOUDY    32  32 100 NE7       29.59R WCI  26
MOORHEAD       CLOUDY    34  34 100 N6        29.61R WCI  29
PARK RAPIDS    CLOUDY    35  30  82 CALM      29.58R
MAHNOMEN       CLOUDY    32  31  96 NE7       29.59R WCI  26
$$
MNZ006-009>011-018-025>026-242300-
   North Central Minnesota

CITY           SKY/WX    TMP DP  RH WIND       PRES   REMARKS
BAUDETTE       PTCLDY    25  10  53 NE10      29.67R WCI  15
FLAG ISLAND    CLEAR     16   7  67 NE14      29.72R WCI   1
INTL FALLS     CLEAR     21   8  57 NE10      29.69R WCI  10
WASKISH        PTCLDY    30  21  69 NE8       29.65R WCI  23
BIG FORK       MOCLDY    30  21  69 N8        29.64R WCI  23
LONGVILLE      CLOUDY    36  28  75 N3        29.58S
GRAND RAPIDS   CLOUDY    36  27  69 N5        29.60R
CRANE LAKE     CLEAR     25  12  58 NE5       29.69R WCI  19
ORR            CLEAR     28  16  59 CALM      29.63R
COOK           CLOUDY    28  19  69 N6        29.65R WCI  22
WALKER         CLOUDY    33  29  87 CALM      29.59R
$$
MNZ012-019>021-037-242300-
   Northeast Minnesota

CITY           SKY/WX    TMP DP  RH WIND       PRES   REMARKS
DULUTH         CLOUDY    36  28  73 N6        29.59R
ELY            MOCLDY    27  18  69 NE7       29.64R WCI  19
HIBBING        CLOUDY    34  26  72 NE6       29.61R WCI  29
EVELETH        CLOUDY    32  27  80 N10       29.62R WCI  24
DULUTH HARBOR  CLOUDY    37  30  75 CALM      29.63R
TWO HARBORS    LGT SNOW  30  27  86 E16G22    29.62R VSB 3/4 WCI  19
SILVER BAY     CLOUDY    28  25  86 E9G16     29.64R WCI  20
GRAND MARAIS     N/A     26  12  55 VRB7      29.71R WCI  18
G MARAIS ARPRT CLEAR     18   9  68 N10       29.64R WCI   6
$$
MNZ029>031-032-039>041-046>048-054>057-064-242300-
   West Central Minnesota

CITY           SKY/WX    TMP DP  RH WIND       PRES   REMARKS
FERGUS FALLS   CLOUDY    34  32  93 NW3       29.60S
WHEATON        CLOUDY    34  28  80 NW8       29.60R WCI  27
MORRIS         CLOUDY    36  30  80 NW7       29.56S
ALEXANDRIA     CLOUDY    35  30  82 W7        29.57R WCI  29
ELBOW LAKE     CLOUDY    32  30  93 N6        29.57R WCI  26
WADENA         CLOUDY    30  30 100 N5        29.57R WCI  25
GLENWOOD       CLOUDY    36  30  80 CALM      29.56S
APPLETON       CLOUDY    37  32  81 W6        29.58R
BENSON         CLOUDY    37  30  75 NW5       29.57S
ORTONVILLE     CLOUDY    37  30  75 CALM      29.57S
MADISON        CLOUDY    41  36  81 NW3       29.57F
WILLMAR        FAIR      37  32  81 W6        29.58S
$$
MNZ033>034-036-042>043-049>051-058-059-242300-
   Central Minnesota

CITY           SKY/WX    TMP DP  RH WIND       PRES   REMARKS
ST CLOUD       CLOUDY    39  31  72 CALM      29.57R
SAUK CENTRE    FAIR      37  31  82 CALM      29.57R
PAYNESVILLE    CLOUDY    34  32  90 NW3       29.58R
AITKIN         CLOUDY    39  30  70 CALM      29.57R
PINE RIVER     CLOUDY    36  30  80 N5        29.62S
BRAINERD       CLOUDY    34  30  85 N5        29.58R WCI  30
STAPLES        CLOUDY    30  30 100 N3        29.58R
LONG PRAIRIE   CLOUDY    36  32  87 CALM      29.57R
LITTLE FALLS   CLOUDY    36  32  87 CALM      29.57S
LITCHFIELD     CLOUDY    37  36  93 CALM      29.58R
BUFFALO        CLOUDY    38  32  78 CALM      29.59S
MAPLE LAKE     CLOUDY    38  34  83 CALM      29.58S
$$
MNZ037-044-045-052-053-242300-
   East Central Minnesota

CITY           SKY/WX    TMP DP  RH WIND       PRES   REMARKS
PRINCETON      CLOUDY    39  32  75 CALM      29.57F
MORA           CLOUDY    36  30  80 CALM      29.59S
CAMBRIDGE      CLOUDY    43  30  61 CALM      29.56S
RUSH CITY      CLOUDY    37  31  78 CALM      29.58S
MOOSE LAKE     CLOUDY    37  30  75 NE3       29.58R
HINCKLEY       CLOUDY    37  32  81 NE3       29.58S
CLOQUET        CLOUDY    36  27  69 NE3       29.60R
MCGREGOR       CLOUDY    36  32  87 N3        29.59S
$$
MNZ071>073-080-081-089-090-097-098-242300-
   Southwest Minnesota

CITY           SKY/WX    TMP DP  RH WIND       PRES   REMARKS
MONTEVIDEO     CLOUDY    37  32  81 NW5       29.59R
GRANITE FALLS  CLOUDY    37  33  87 CALM      29.59S
CANBY          LGT RAIN  38  34  84 W7        29.58F
MARSHALL       CLOUDY    39  30  70 NW8       29.59F
REDWOOD FALLS  CLOUDY    39  33  79 W7        29.58S
OLIVIA         CLOUDY    36  32  87 W5        29.57S
PIPESTONE      CLOUDY    37  34  87 NW5       29.57S
WINDOM         CLOUDY    37  34  87 SW9       29.58S
WORTHINGTON    CLOUDY    37  32  81 W10       29.60F
JACKSON        CLOUDY    37  32  81 W8        29.60F
TRACY          CLOUDY    39  34  80 W6        29.58F
SLAYTON        CLOUDY    37  33  82 CALM      29.59S
$$
MNZ065>067-074>077-082>085-091>093-242300-
   South Central Minnesota

CITY           SKY/WX    TMP DP  RH WIND       PRES   REMARKS
MANKATO        CLOUDY    39  34  81 W7        29.58F
NEW ULM        CLOUDY    37  36  93 W6        29.57F
ST JAMES       CLOUDY    39  36  87 SW10      29.60S
FAIRMONT       CLOUDY    39  30  70 SW9       29.59S
GLENCOE        CLOUDY    37  34  90 CALM      29.57F
FARIBAULT      CLOUDY    37  34  87 S3        29.59S
OWATONNA       CLOUDY    37  34  87 SW3       29.59R
WASECA         CLOUDY    39  36  87 SW6       29.59S
ALBERT LEA     CLOUDY    39  36  87 SW6       29.59S
$$
MNZ078>079-086>088-094>096-242300-
   Southeast Minnesota

CITY           SKY/WX    TMP DP  RH WIND       PRES   REMARKS
ROCHESTER      CLOUDY    35  31  85 S5        29.59S WCI  31
RED WING       CLOUDY    37  30  75 SE3       29.59S
STANTON        CLOUDY    38  32  79 CALM      29.58R
DODGE CENTER   CLOUDY    36  34  93 SW3       29.58R
WINONA         MOCLDY    37  32  81 SW3       29.61F
AUSTIN         CLOUDY    37  34  87 SW5       29.59R
PRESTON        CLOUDY    36  32  85 S3        29.60S
$$
ABBREVIATIONS USED IN REMARKS
   TC - TEMPERATURES IN CELSIUS
  WCI - WIND CHILL INDEX
   HX - HEAT INDEX
  VSB - VISIBILITY
$$



USA.gov is the U.S. government's official web portal to all federal, state and local government web resources and services.